THORAD DELTA 1 DEB, 8181

Orbit data source: Space-Track

THORAD DELTA 1 DEB, 8181 is space debris in SSO originally from a launch on Fri, 15 Nov 1974 UTC launched from the Air Force Western Test Range (AFWTR). Debris objects in space refer to the collection of defunct objects orbiting the Earth. Examples of debris include non-operational satellites, rocket bodies, and fragments generated from explosions, collisions, or faulty payload assembly.

Loading next visibility...
Identifier
8181, 1974-089AX
Orbit
SSO
Country
Flag of USUS
Related business
Manufacturer
Unknown
Mission
Spacecraft
Bus & Motor
Unknown
Mass
Unknown
Launch date (UTC)
1974-11-15 (51 years ago)
Launch vehicle
Unknown
Launch site
Air Force Western Test Range (AFWTR)
Object type
Payload
Rocket body
Debris
Shape & HBR
Unknown shape, 0.3 m
Radar Cross Section
Small (<0.1 m²)

Expand to show TLE details & history
Last TLE update: 11 hours ago

TLE from 11 hours ago
0 THORAD DELTA 1 DEB
1  8181U 74089AX  26062.85077713  .00000071  00000-0  83940-3 0  9995
2  8181 101.6796 173.5273 0068845 199.8902 284.2274 12.40335501321310
Epoch: 2026-03-03T20:25Z
TLE epoch observation values (Epoch: 2026-03-03T20:25:07.144Z)
Latitude
54.98105°
Longitude
-97.30434°
Altitude
1,501.085 km
Speed
7.125 km/s
True Right ascension
00h 42m 23s
True Declination
54° 50' 04"
Sunlit
Object was in daylight at epoch
Visualization orbit readout
Latitude
Unknown
Longitude
Unknown
Altitude
Unknown
Speed
Unknown
Apparent Right ascension
Unknown
Apparent Declination
Unknown
Sunlit
N/A
Visualization observer readout
Local Sidereal Time
11:33:33
Azimuth
Unknown
Elevation
Unknown
Doppler factor
Unknown
Orbital elements
Apogee altitude
1,556.992 km
Perigee altitude
1,448.481 km
Semi-major axis
7,880.874 km
Eccentricity
0.00688
Inclination
101.6796°
RAAN
173.5273°
Arg. of periapsis
199.8902°
True anomaly
283.46109°
Mean anomaly
284.2274°
Eccentric anomaly
283.84441°
Mean motion
3.10228 °/min
Orbital period
116.04 mins
BSTAR
0.0008394

Documentation

Showing up to 5 results
|